Selinsgrove, PA

4:11 PM EDT on June 27, 2017 (GMT -0400)
Penn Valley

Weather History for KSEG - January, 2013

Change the Weather History Date:

Wednesday, January 23, 2013

  Actual Average (KIPT) Record (KIPT)
Temperature  
Mean Temperature 14 °F -  
Max Temperature 19 °F 31 °F 66 °F (1906)
Min Temperature 8 °F 16 °F -11 °F (1970)
Degree Days  
Heating Degree Days 52    
Moisture  
Dew Point 0 °F    
Average Humidity 61    
Maximum Humidity 80    
Minimum Humidity 44    
Precipitation  
Precipitation 0.00 in - - ()
Sea Level Pressure  
Sea Level Pressure 30.24 in    
Wind  
Wind Speed 4 mph (West)    
Max Wind Speed 12 mph    
Max Gust Speed 16 mph    
Visibility 10 miles    
Events      
Averages and records for this station are not official NWS values.
T = Trace of Precipitation, MM = Missing Value Source: NWS Daily Summary

Daily Weather History Graph

Daily Weather History Graph

Search for Another Location

Airport or City:

Trip Planner

Search our weather history database for the weather conditions in past years. The results will help you decide how hot, cold, wet, or windy it might be!

Date:

Astronomy

Jan. 23, 2013 Rise Set
Actual Time 7:25 AM EST 5:14 PM EST
Civil Twilight 6:55 AM EST 5:43 PM EST
Nautical Twilight 6:22 AM EST 6:17 PM EST
Astronomical Twilight 5:49 AM EST 6:49 PM EST
Moon 2:22 PM EST (1/23) 4:35 AM EST (1/23)
Length of Visible Light 10h 48m
Length of Day
9h 49m
Waxing Gibbous, 89% of the Moon is Illuminated
Jan 23
Waxing Gibbous
Jan 26
Full
Feb 3
Last Quarter
Feb 10
New
Feb 17
First Quarter

Hourly Weather History & Observations

Time (EST) Temp. Windchill Dew Point Humidity Pressure Visibility Wind Dir Wind Speed Gust Speed Precip Events Conditions
12:53 AM 9.0 °F 0.6 °F -2.9 °F 59% 30.25 in 10.0 mi Variable 4.6 mph - N/A   Clear
1:53 AM 9.0 °F 2.4 °F -2.9 °F 59% 30.26 in 10.0 mi West 3.5 mph - N/A   Clear
2:53 AM 10.0 °F 1.8 °F -2.9 °F 56% 30.27 in 10.0 mi WSW 4.6 mph - N/A   Scattered Clouds
3:53 AM 8.1 °F -0.5 °F -2.0 °F 64% 30.27 in 10.0 mi SW 4.6 mph - N/A   Clear
4:53 AM 8.1 °F - -2.0 °F 64% 30.27 in 10.0 mi Calm Calm - N/A   Scattered Clouds
5:17 AM 8.6 °F - -2.2 °F 62% 30.24 in 10.0 mi Calm Calm - N/A   Mostly Cloudy
5:33 AM 8.6 °F 0.1 °F -2.2 °F 62% 30.25 in 10.0 mi WSW 4.6 mph - N/A   Scattered Clouds
5:53 AM 9.0 °F 2.4 °F -2.0 °F 61% 30.28 in 10.0 mi West 3.5 mph - N/A   Clear
6:53 AM 8.1 °F - -2.0 °F 64% 30.28 in 10.0 mi Calm Calm - N/A   Clear
7:53 AM 8.1 °F 1.4 °F -0.9 °F 67% 30.29 in 10.0 mi SSW 3.5 mph - N/A   Clear
8:53 AM 10.9 °F 0.2 °F -0.9 °F 59% 30.30 in 10.0 mi WSW 6.9 mph - N/A   Clear
9:53 AM 12.9 °F 3.8 °F -0.0 °F 56% 30.31 in 10.0 mi WSW 5.8 mph - N/A   Clear
10:53 AM 15.1 °F 1.8 °F -0.0 °F 51% 30.30 in 10.0 mi West 11.5 mph 16.1 mph N/A   Partly Cloudy
11:53 AM 16.0 °F 10.4 °F -0.0 °F 49% 30.26 in 10.0 mi West 3.5 mph - N/A   Overcast
12:53 PM 16.0 °F 2.9 °F -0.0 °F 49% 30.23 in 10.0 mi WNW 11.5 mph - N/A   Overcast
1:53 PM 18.0 °F 7.7 °F -0.9 °F 44% 30.22 in 10.0 mi West 8.1 mph - 0.00 in   Mostly Cloudy
2:53 PM 19.0 °F 9.0 °F 1.0 °F 46% 30.22 in 10.0 mi West 8.1 mph - N/A   Mostly Cloudy
3:53 PM 17.1 °F 8.7 °F -0.0 °F 47% 30.22 in 10.0 mi West 5.8 mph - N/A   Mostly Cloudy
4:53 PM 17.1 °F 10.0 °F -0.0 °F 47% 30.21 in 10.0 mi WNW 4.6 mph - N/A   Scattered Clouds
5:53 PM 15.1 °F - 1.0 °F 54% 30.22 in 10.0 mi Calm Calm - N/A   Partly Cloudy
6:53 PM 12.0 °F - 3.0 °F 67% 30.22 in 10.0 mi Calm Calm - N/A   Partly Cloudy
7:53 PM 10.9 °F 4.7 °F 3.9 °F 73% 30.20 in 10.0 mi NW 3.5 mph - N/A   Mostly Cloudy
8:53 PM 9.0 °F - 3.9 °F 80% 30.21 in 10.0 mi Calm Calm - N/A   Partly Cloudy
9:53 PM 9.0 °F - 3.9 °F 80% 30.20 in 10.0 mi Calm Calm - N/A   Overcast
10:53 PM 10.9 °F - 5.0 °F 77% 30.19 in 10.0 mi Calm Calm - N/A   Overcast
11:53 PM 10.9 °F - 5.0 °F 77% 30.17 in 10.0 mi Calm Calm - N/A   Overcast